Temp
44 39 35 40 40 40 38 35 33 33 39 39 36 35 38 39 39 37 35 36 36 38 41 41 41 39 38 38 38 38 38 38 37 36 35 35 35 36 37 38 38 38 38 37
41 37 41 43 43 41 39 34 31 34 39 38 36 36 38 38 41 42 40 38 39 38 38 40 39 37 37 36 36 37 37 37 37 36 35 35 34 35 35 37 37 37 36 36
37 39 44 44 40 39 34 35 31 34 35 36 35 34 35 37 39 40 42 42 42 40 38 38 37 35 34 34 34 36 36 36 35 35 35 35 34 34 33 33 33 34 35 35
38 42 41 38 38 38 34 37 37 34 31 26 32 22 33 34 36 39 41 39 39 38 39 38 36 33 34 33 34 35 35 35 35 34 32 30 28 27 29 30 31 32 33 33
36 35 36 36 37 39 35 38 36 34 30 27 26 22 34 33 32 37 40 39 38 39 39 37 35 35 35 34 32 32 33 33 32 32 31 28 27 28 28 29 29 29 30 31
34 40 37 35 38 38 40 36 33 30 28 13 27 27 30 31 35 34 40 39 38 37 36 36 36 35 33 32 31 31 31 30 31 30 29 28 25 26 26 26 26 27 28 28
33 33 36 39 35 39 35 31 13 14 9 16 26 24 31 36 39 39 39 39 38 39 36 34 33 32 31 30 30 31 30 28 29 28 28 27 26 26 25 25 24 24 24 25
29 26 34 38 34 33 32 30 20 13 12 19 28 20 34 39 39 40 41 41 38 36 36 35 34 32 30 30 30 29 29 28 28 27 27 26 27 26 25 24 23 23 23 23
28 29 33 35 36 35 32 25 31 14 6 13 25 30 37 36 37 36 36 35 35 36 35 34 33 32 30 29 28 28 28 27 27 27 27 25 24 24 22 22 22 21 22 24
35 25 31 33 37 33 32 34 24 17 13 9 20 24 32 35 34 35 32 33 34 35 33 33 32 30 30 29 29 28 28 27 27 26 25 24 23 22 22 21 19 19 20 20
34 31 26 32 29 28 26 23 24 26 23 15 12 24 36 40 36 36 35 35 35 34 33 32 31 30 30 29 26 27 26 26 26 26 24 22 21 21 21 19 18 18 19 19
36 29 19 26 29 32 31 30 28 19 19 18 17 23 38 36 38 37 36 35 35 35 34 32 30 29 28 27 25 25 25 25 24 23 22 22 21 19 17 16 16 17 16 18
35 24 15 22 27 27 28 29 29 18 18 16 15 30 34 35 34 34 33 32 33 32 31 30 29 28 27 26 25 23 23 23 23 21 20 19 17 16 13 12 13 14 14 15
41 25 25 29 30 26 25 27 31 24 14 16 26 28 40 36 34 34 32 33 32 32 31 29 28 28 27 26 23 21 22 22 20 19 17 15 14 12 11 9 6 7 10 14
33 25 20 19 25 26 29 28 29 28 32 26 34 28 38 34 34 32 32 31 30 31 30 29 28 27 26 23 22 20 19 19 18 14 10 6 10 8 5 1 1 4 7 9
29 23 21 19 24 26 24 29 29 31 27 30 31 29 44 38 34 29 31 30 31 30 31 30 30 28 26 24 18 17 13 14 14 7 -1 -2 1 1 -0 -4 -1 1 4 7
27 23 19 16 22 18 18 26 28 26 24 30 25 37 37 35 34 31 30 29 30 31 30 29 29 27 26 22 19 10 8 11 6 3 -5 -6 -7 -4 -5 -4 -2 2 4 6
25 26 25 13 13 17 33 31 39 36 35 34 31 36 37 33 33 33 32 32 32 32 30 30 29 27 25 20 14 9 8 5 2 -1 -6 -5 -6 -4 -4 -4 -1 0 2 4
26 29 24 23 14 31 28 28 30 29 33 41 38 41 42 31 32 39 34 34 35 34 33 32 30 26 20 16 10 7 2 1 0 -2 -4 -4 -4 -4 -6 -3 -3 0 5 11
26 26 34 14 18 20 33 37 34 38 31 43 42 41 41 32 27 41 33 33 33 32 31 28 25 19 17 11 10 8 2 2 1 -0 1 -1 -1 -2 -3 -1 1 2 6 13
17 19 26 26 27 28 36 31 38 28 35 42 42 43 29 32 37 28 23 23 25 29 27 23 20 18 15 10 11 7 4 5 5 5 4 2 2 4 4 6 9 9 9 10
24 24 25 22 22 24 35 32 38 46 38 39 35 33 35 36 30 22 21 22 22 20 20 19 19 14 10 11 13 8 8 6 7 8 7 6 5 12 12 10 12 11 11 11
27 33 33 34 34 32 37 42 39 32 38 36 36 35 34 31 28 25 22 20 20 19 18 19 15 10 9 12 15 13 9 8 8 8 6 5 8 12 13 11 11 11 11 11
26 29 36 33 42 34 33 34 31 32 35 33 36 35 32 33 27 24 20 20 19 18 17 17 13 11 9 13 16 15 10 10 8 6 6 7 8 9 9 14 14 11 8 8
33 33 33 37 40 33 36 38 37 35 35 33 26 29 33 32 27 25 21 19 19 17 16 15 15 13 11 13 12 11 10 9 7 7 8 10 10 7 8 11 9 12 13 13
40 31 34 37 44 45 49 37 36 35 34 34 30 23 28 29 26 23 20 20 18 16 15 15 15 14 11 12 9 10 9 9 8 7 8 8 8 6 7 6 5 18 20 21
MSLP
1019.17 1020.18 1020.59 1020.55 1021.27 1021.24 1021.89 1022.80 1023.41 1023.77 1023.83 1024.36 1024.44 1024.77 1025.19 1025.79 1026.34 1026.71 1027.02 1027.49 1027.81 1027.89 1027.89 1028.38 1028.87 1029.40 1029.55 1029.66 1029.72 1029.91 1029.96 1029.90 1029.71 1029.58 1029.19 1028.77 1028.61 1028.50 1027.97 1027.61 1027.02 1026.69 1026.46 1025.85
1019.84 1020.24 1020.32 1020.53 1021.05 1021.24 1021.90 1022.93 1023.68 1023.93 1024.02 1024.62 1024.54 1024.29 1024.66 1024.86 1024.68 1024.98 1025.65 1026.34 1026.81 1027.38 1027.95 1028.44 1028.89 1029.28 1029.66 1029.90 1030.01 1030.04 1030.19 1030.15 1030.11 1029.98 1029.75 1029.35 1029.18 1028.75 1028.48 1027.96 1027.57 1027.31 1026.92 1026.27
1020.19 1020.57 1020.36 1020.69 1021.26 1021.59 1022.20 1022.79 1023.68 1024.07 1024.54 1024.86 1025.01 1023.88 1023.42 1023.28 1023.69 1024.15 1024.45 1025.07 1025.77 1026.57 1027.40 1028.12 1028.90 1029.41 1029.73 1030.00 1030.06 1030.28 1030.41 1030.40 1030.29 1030.09 1029.86 1029.46 1029.20 1028.78 1028.76 1028.54 1028.38 1028.01 1027.54 1026.83
1020.88 1021.02 1021.01 1021.15 1021.68 1022.10 1022.69 1022.91 1023.61 1024.59 1025.34 1025.92 1025.81 1024.91 1023.30 1022.86 1022.94 1023.22 1023.51 1024.15 1025.02 1026.02 1026.99 1027.77 1028.38 1029.20 1029.55 1029.95 1030.13 1030.40 1030.59 1030.58 1030.44 1030.54 1030.38 1030.31 1030.14 1029.88 1029.92 1029.46 1029.14 1028.46 1027.89 1027.33
1021.18 1021.54 1021.70 1021.86 1022.21 1022.49 1023.16 1023.59 1024.47 1025.52 1026.24 1026.61 1026.57 1026.34 1022.54 1022.44 1022.55 1021.85 1022.49 1023.20 1024.24 1025.22 1026.04 1027.10 1027.85 1028.54 1029.23 1029.78 1030.19 1030.52 1030.72 1030.80 1030.78 1030.68 1030.71 1030.58 1030.60 1030.47 1030.20 1029.73 1029.53 1028.93 1028.33 1027.83
1021.83 1022.01 1022.46 1022.67 1022.78 1023.13 1023.75 1024.59 1025.87 1027.01 1027.80 1028.07 1026.23 1025.96 1022.89 1021.73 1020.55 1020.69 1021.35 1022.47 1023.58 1024.77 1025.88 1026.80 1027.57 1028.25 1029.18 1029.72 1030.18 1030.52 1030.73 1030.99 1031.06 1030.89 1030.78 1030.85 1030.88 1030.73 1030.59 1030.22 1030.04 1029.43 1028.84 1028.22
1022.23 1022.33 1022.63 1022.88 1023.47 1023.70 1024.30 1025.60 1027.77 1029.05 1029.55 1028.32 1026.94 1026.29 1021.91 1019.94 1019.39 1019.64 1020.41 1021.65 1022.96 1024.15 1025.44 1026.44 1027.20 1028.08 1028.98 1029.67 1030.15 1030.56 1030.89 1031.17 1031.05 1031.04 1031.04 1031.23 1031.20 1030.96 1030.90 1030.69 1030.44 1029.94 1029.30 1028.66
1022.18 1022.97 1022.83 1023.02 1023.78 1023.80 1024.90 1025.84 1026.98 1028.79 1030.12 1028.84 1027.36 1024.97 1020.25 1018.72 1018.59 1019.05 1019.74 1020.92 1022.55 1023.92 1024.99 1025.92 1026.66 1027.58 1028.60 1029.42 1029.92 1030.39 1030.83 1030.97 1031.11 1031.17 1031.41 1031.46 1031.25 1031.25 1031.18 1030.88 1030.87 1030.66 1030.24 1029.40
1021.49 1022.55 1023.21 1023.35 1023.62 1024.48 1025.30 1026.02 1026.73 1028.58 1030.49 1029.23 1026.03 1023.33 1019.66 1018.37 1018.73 1019.11 1019.99 1021.02 1022.12 1023.29 1024.52 1025.47 1026.55 1027.32 1028.49 1029.20 1029.78 1030.24 1030.76 1031.01 1031.38 1031.47 1031.55 1031.78 1031.53 1031.50 1031.41 1031.42 1031.45 1031.02 1030.60 1029.77
1019.79 1022.26 1023.51 1023.68 1023.41 1024.82 1025.07 1025.46 1026.74 1028.58 1029.73 1028.82 1025.86 1023.58 1020.19 1018.55 1018.78 1019.34 1020.12 1020.68 1021.72 1022.90 1024.19 1025.22 1026.20 1027.18 1028.10 1028.82 1029.68 1030.33 1030.78 1031.22 1031.61 1031.67 1031.82 1032.05 1031.90 1031.81 1032.01 1031.87 1031.83 1031.56 1031.07 1030.32
1019.64 1020.77 1024.18 1023.99 1023.48 1024.04 1025.45 1025.58 1026.35 1027.35 1027.92 1027.31 1025.77 1021.88 1017.80 1017.11 1018.03 1018.61 1019.05 1020.10 1021.19 1022.22 1023.28 1024.65 1026.00 1027.03 1027.90 1028.77 1029.67 1030.36 1031.00 1031.42 1031.69 1031.81 1032.22 1032.18 1032.07 1032.29 1032.38 1032.22 1032.25 1031.78 1031.35 1030.63
1019.30 1021.42 1023.51 1023.74 1023.32 1023.30 1024.26 1024.68 1025.10 1026.57 1027.54 1027.14 1025.47 1020.14 1016.85 1016.99 1017.20 1017.84 1018.49 1019.65 1020.82 1021.84 1022.93 1024.27 1025.64 1026.86 1027.93 1028.78 1029.58 1030.46 1031.11 1031.43 1031.74 1032.05 1032.39 1032.54 1032.50 1032.74 1032.76 1032.75 1032.53 1032.08 1031.66 1030.94
1018.49 1020.99 1023.16 1024.05 1024.25 1023.83 1023.95 1023.69 1024.37 1025.13 1025.36 1025.62 1024.88 1019.04 1017.08 1016.85 1017.28 1017.78 1018.56 1019.55 1020.54 1021.67 1022.93 1024.06 1025.40 1026.45 1027.54 1028.55 1029.62 1030.35 1030.97 1031.52 1032.11 1032.31 1032.74 1032.88 1033.11 1033.46 1033.59 1033.40 1033.24 1032.70 1032.22 1031.42
1017.76 1019.82 1020.60 1021.18 1020.74 1021.02 1022.55 1022.27 1022.82 1023.69 1024.46 1023.02 1020.65 1018.73 1016.22 1016.91 1017.07 1017.61 1018.34 1019.11 1020.08 1021.06 1022.18 1023.37 1024.67 1025.86 1027.16 1028.33 1029.50 1030.42 1031.26 1031.90 1032.34 1032.71 1033.24 1033.59 1033.68 1034.14 1034.20 1034.14 1033.91 1033.59 1032.60 1031.80
1018.70 1019.95 1020.64 1020.52 1020.52 1020.61 1020.41 1020.65 1021.25 1021.70 1021.01 1020.82 1017.96 1018.04 1014.34 1015.43 1016.17 1016.55 1017.21 1018.75 1020.05 1020.93 1021.75 1022.38 1023.53 1024.83 1026.50 1028.01 1029.39 1030.50 1031.35 1032.16 1032.67 1033.16 1033.99 1034.37 1034.41 1034.75 1034.90 1034.64 1034.34 1033.67 1032.94 1032.27
1019.75 1020.34 1020.90 1021.22 1020.73 1020.59 1020.23 1019.76 1020.05 1020.42 1020.14 1019.49 1018.03 1016.21 1012.91 1014.05 1015.13 1016.14 1017.18 1018.06 1019.08 1019.94 1020.63 1021.62 1022.69 1023.92 1025.50 1027.05 1028.90 1030.38 1031.49 1032.29 1032.95 1033.88 1034.58 1034.69 1034.71 1035.14 1035.10 1034.78 1034.63 1034.08 1033.49 1032.61
1019.86 1020.48 1021.34 1021.45 1021.06 1020.71 1019.65 1017.98 1017.78 1017.96 1017.41 1016.85 1016.57 1013.06 1012.64 1013.41 1014.26 1014.75 1015.96 1016.82 1017.18 1017.92 1019.10 1020.26 1021.20 1022.64 1024.45 1026.40 1028.02 1030.18 1031.52 1032.33 1033.19 1034.36 1034.92 1034.80 1035.03 1035.20 1035.23 1034.99 1034.64 1034.28 1033.50 1033.16
1018.71 1019.83 1020.49 1021.05 1021.26 1019.09 1014.27 1013.45 1013.96 1014.33 1014.36 1014.45 1013.52 1011.69 1011.65 1012.18 1012.88 1013.41 1014.10 1014.83 1015.52 1016.24 1017.52 1019.17 1020.68 1022.29 1024.12 1026.21 1028.18 1029.97 1031.61 1032.74 1033.68 1034.54 1034.86 1034.71 1035.17 1035.41 1035.30 1034.94 1034.59 1034.14 1033.56 1033.06
1017.80 1018.23 1019.35 1019.87 1019.42 1015.37 1013.60 1013.40 1013.61 1013.63 1012.02 1011.73 1011.55 1010.89 1010.51 1012.36 1013.16 1011.50 1012.67 1012.96 1013.13 1014.21 1015.69 1017.44 1019.42 1021.33 1023.61 1025.69 1027.50 1029.57 1031.63 1032.84 1033.76 1034.42 1034.83 1034.61 1034.88 1035.16 1035.04 1034.91 1034.50 1034.20 1033.61 1032.99
1017.77 1017.09 1017.03 1018.93 1017.35 1013.86 1010.04 1010.17 1010.49 1011.63 1009.04 1009.27 1009.58 1009.63 1010.38 1012.34 1013.63 1010.84 1011.36 1011.93 1013.01 1014.02 1015.72 1017.49 1019.73 1021.92 1023.66 1025.77 1027.20 1029.01 1031.34 1032.46 1033.31 1034.02 1034.23 1034.33 1034.59 1034.61 1034.63 1034.64 1034.50 1034.20 1033.84 1033.05
1017.39 1016.90 1015.46 1015.57 1014.71 1010.49 1008.68 1009.24 1009.88 1010.68 1006.40 1006.79 1007.77 1008.34 1010.27 1011.32 1010.70 1011.40 1011.58 1012.54 1013.21 1014.28 1015.73 1017.69 1019.61 1021.28 1023.24 1025.24 1026.69 1028.65 1030.53 1031.83 1032.64 1033.10 1033.64 1034.11 1034.29 1034.48 1034.36 1034.13 1034.13 1033.84 1034.03 1033.43
1012.76 1013.62 1013.37 1013.97 1013.50 1009.27 1006.89 1008.91 1007.54 1005.60 1005.92 1006.52 1007.33 1008.45 1009.25 1009.50 1010.74 1011.87 1012.59 1013.46 1014.24 1015.26 1016.76 1018.40 1020.04 1022.16 1023.85 1024.83 1025.96 1028.14 1029.63 1030.69 1031.99 1032.91 1033.48 1033.79 1033.99 1033.87 1033.85 1033.74 1033.73 1033.69 1033.60 1033.61
1009.79 1007.61 1007.96 1008.49 1005.86 1005.34 1005.55 1004.73 1005.06 1005.18 1006.03 1006.81 1007.25 1007.74 1008.70 1009.95 1010.98 1012.15 1013.23 1014.27 1015.03 1016.02 1017.28 1018.57 1019.86 1022.38 1024.22 1025.05 1025.45 1026.91 1028.70 1029.92 1031.19 1032.20 1033.15 1033.30 1033.41 1033.51 1033.56 1033.59 1033.86 1033.77 1033.61 1033.45
1006.72 1006.56 1006.15 1006.91 1003.38 1004.05 1004.44 1004.72 1004.84 1005.32 1005.67 1006.38 1006.61 1007.38 1008.44 1009.25 1010.67 1012.23 1013.40 1014.71 1015.71 1016.57 1017.66 1018.83 1020.22 1022.32 1023.97 1024.78 1025.58 1026.42 1027.94 1029.25 1030.44 1031.77 1032.55 1032.68 1033.05 1033.49 1033.63 1033.58 1033.54 1033.64 1033.72 1033.50
1004.02 1005.23 1004.05 1003.59 1002.68 1003.34 1003.51 1003.24 1003.93 1004.94 1005.69 1006.36 1006.88 1007.46 1008.02 1009.05 1009.90 1011.57 1013.08 1014.14 1015.59 1016.46 1018.05 1018.98 1019.97 1021.57 1023.12 1024.09 1025.31 1026.59 1027.76 1029.03 1030.23 1031.15 1031.78 1032.47 1032.86 1033.05 1033.30 1033.32 1033.36 1033.35 1033.10 1032.90
1001.38 1001.50 1002.10 999.85 1000.79 1001.50 1001.29 1002.93 1003.80 1004.73 1005.16 1005.61 1006.81 1007.84 1008.16 1008.78 1009.79 1011.34 1012.57 1013.67 1015.08 1016.25 1018.10 1019.20 1020.20 1021.31 1023.08 1024.22 1025.29 1026.48 1027.40 1028.37 1029.24 1030.51 1031.62 1031.90 1032.40 1033.01 1033.38 1033.48 1033.52 1032.64 1032.49 1032.12
Wind_Speed
3 5 8 13 6 3 7 5 5 1 2 5 8 6 10 10 9 10 10 10 9 10 8 8 7 7 7 5 7 5 6 6 5 3 4 3 5 5 6 7 10 12 11 11
5 3 3 7 3 2 5 5 2 1 2 2 5 13 9 12 16 18 16 13 13 8 7 7 7 6 4 5 6 6 6 6 5 3 3 2 3 3 3 7 10 11 12 12
4 0 1 3 4 3 1 6 5 2 3 2 6 9 6 7 8 8 12 14 13 15 12 8 8 7 6 5 6 6 5 6 5 5 4 4 4 3 5 8 7 9 11 11
3 2 1 3 3 3 3 3 6 7 5 3 2 8 7 6 11 14 15 14 13 11 8 9 8 7 8 6 6 6 6 5 6 6 4 6 3 4 4 5 6 8 10 11
4 3 2 3 3 0 2 4 5 4 4 3 2 2 9 2 7 17 15 15 12 13 15 13 11 10 7 7 7 6 6 6 5 6 5 4 4 3 3 5 9 9 9 10
3 2 2 2 3 2 7 7 9 6 3 3 6 7 7 6 8 3 12 12 14 13 11 10 9 10 7 7 7 6 6 5 6 5 6 6 6 6 6 8 7 8 7 8
2 1 0 3 6 5 4 6 4 6 5 8 2 3 13 7 9 8 14 14 15 16 14 13 14 11 9 8 7 6 6 5 5 5 6 6 5 5 5 6 5 8 7 8
8 4 8 4 2 7 5 5 8 9 4 4 0 8 11 7 5 6 9 13 14 15 14 14 14 12 10 9 8 7 6 5 5 5 6 4 5 3 4 5 5 5 6 7
6 2 1 3 3 2 6 4 3 8 2 4 5 8 13 7 5 3 7 11 16 17 15 15 12 12 10 9 8 8 7 5 5 5 4 4 5 6 5 7 6 6 7 8
9 6 1 2 5 0 3 4 4 4 1 5 5 6 9 6 8 6 8 13 13 14 14 12 12 12 9 9 7 7 6 6 5 4 4 4 5 5 6 7 9 10 9 9
5 5 2 3 8 10 3 3 3 3 5 7 2 9 10 12 10 13 13 13 15 17 16 13 11 10 10 9 8 7 6 6 4 4 4 4 5 7 7 8 8 9 10 10
5 6 5 7 2 4 4 7 7 7 6 3 3 13 5 4 7 9 10 11 12 15 15 14 13 12 11 10 9 8 6 5 4 5 4 6 7 8 8 9 9 10 10 10
10 1 4 7 4 1 7 7 4 5 4 8 6 10 1 5 5 7 9 9 12 13 14 13 13 13 12 11 9 8 6 6 5 5 4 5 7 7 7 7 9 9 9 9
8 4 9 12 6 8 8 8 15 8 5 6 14 10 19 8 10 7 8 12 14 16 17 15 14 13 12 11 10 8 7 5 5 6 5 6 7 6 6 6 6 6 7 7
5 6 4 4 2 3 4 8 20 20 20 11 12 15 27 11 14 13 10 8 12 15 17 18 17 15 14 12 10 8 7 6 5 6 6 4 5 5 4 5 6 5 6 6
1 3 3 5 1 3 5 7 13 16 6 14 15 20 22 10 6 6 10 12 16 16 18 17 17 17 17 16 12 9 7 6 7 6 5 2 5 4 4 4 6 5 6 7
8 7 4 7 4 4 9 16 14 8 7 12 14 26 4 9 12 12 13 16 20 20 21 21 22 19 17 16 15 12 9 7 7 6 4 3 4 4 4 4 4 5 5 5
9 8 2 3 3 11 3 5 20 25 13 20 13 16 13 9 6 8 10 17 19 19 19 18 16 16 15 13 12 12 9 7 7 6 4 4 4 3 4 4 4 4 3 4
1 6 4 4 7 12 4 5 12 11 18 27 25 26 28 3 3 24 15 18 22 22 20 18 17 18 15 16 15 14 9 8 7 6 5 4 4 3 2 4 4 3 3 4
2 4 8 5 6 17 3 16 9 9 21 16 18 24 17 8 3 18 13 12 11 11 14 17 18 16 17 14 16 16 11 9 8 7 6 5 4 3 2 1 3 2 2 5
3 1 16 13 14 13 7 12 9 10 8 12 15 20 11 11 11 3 1 4 6 13 18 17 18 18 18 17 17 14 12 11 8 8 6 5 4 3 2 1 1 2 3 4
16 15 11 3 6 30 11 6 24 13 4 7 6 8 14 10 5 3 3 8 12 15 17 14 15 14 15 16 17 15 13 10 10 9 7 6 4 3 2 4 1 3 2 3
14 14 15 18 15 2 13 11 11 5 8 7 7 7 8 8 8 7 7 9 10 14 14 13 16 16 13 13 15 17 12 14 12 10 7 6 5 4 4 4 3 2 2 2
6 5 10 6 22 12 10 6 4 7 6 6 6 9 11 10 9 8 9 9 10 11 13 12 17 17 16 13 12 12 16 14 12 11 9 7 6 4 2 3 3 2 1 2
8 15 14 18 17 4 14 16 12 8 5 6 2 6 10 7 11 11 11 12 11 12 12 14 16 17 17 15 12 14 14 14 12 10 9 7 5 5 3 2 2 1 2 3
14 10 16 20 13 18 25 10 12 11 15 13 10 4 5 9 11 10 10 11 13 14 13 13 14 16 16 14 13 13 14 15 14 11 7 7 6 4 3 3 1 2 3 6
Wind_Direction
30 100 188 193 174 135 139 138 166 211 194 166 229 244 222 209 209 210 210 202 207 201 202 180 169 133 123 94 80 68 54 16 23 354 347 357 2 5 8 6 8 5 357 355
40 217 195 165 206 189 129 123 168 310 190 171 286 261 229 204 217 208 204 201 204 187 179 174 149 144 121 117 95 84 63 39 22 3 342 2 330 339 354 5 6 359 354 356
156 3 92 121 165 156 108 170 174 188 116 303 341 285 222 226 216 209 214 201 198 185 176 166 148 149 137 121 116 95 74 62 40 20 3 357 356 346 3 3 355 348 350 354
104 355 139 115 139 110 210 183 137 128 106 220 77 278 281 228 229 222 209 198 192 177 165 154 153 153 153 140 115 99 78 59 55 28 35 37 18 10 346 353 336 342 350 353
212 134 135 130 152 209 198 104 114 113 96 50 218 52 269 99 240 231 214 202 187 178 169 166 166 154 147 135 129 110 93 69 56 53 48 45 27 7 327 358 348 346 346 353
96 94 51 121 77 4 146 71 43 46 54 360 223 165 269 203 211 244 204 197 181 171 164 160 152 139 133 133 123 121 107 78 62 62 51 46 38 11 10 6 351 344 342 344
53 104 237 148 78 9 74 83 7 353 4 224 8 155 250 263 235 206 197 194 180 172 164 162 154 151 149 148 138 133 114 93 77 66 55 39 36 26 18 10 345 341 340 343
155 285 168 175 204 180 170 160 161 207 199 253 321 234 251 229 264 221 198 190 172 172 172 169 164 156 154 147 144 131 137 119 89 70 60 36 33 27 16 0 351 341 330 326
139 161 117 77 66 109 189 193 159 99 47 50 226 282 295 239 240 209 165 159 181 177 174 171 160 155 149 151 153 149 140 123 99 78 71 36 35 26 12 3 350 343 335 329
202 100 9 142 117 3 180 159 94 357 195 264 281 275 245 266 233 221 195 195 183 173 171 167 162 155 152 149 145 136 137 121 112 86 54 53 38 29 21 7 355 350 337 337
135 106 285 145 203 165 152 213 66 135 164 184 238 255 219 230 195 214 216 197 183 178 173 166 160 155 150 140 140 141 133 125 106 84 67 59 46 37 22 10 356 350 340 345
171 113 161 209 198 150 206 202 160 137 235 265 135 265 279 199 210 211 210 191 181 183 173 162 157 151 155 149 150 139 137 124 111 87 78 60 49 39 22 10 356 354 346 347
179 236 78 355 354 44 212 188 150 109 106 195 143 263 6 256 260 233 204 180 178 171 165 160 158 165 161 158 149 146 141 130 108 94 85 68 54 37 21 2 358 350 341 342
100 132 164 190 187 133 194 187 181 147 140 178 226 285 259 238 237 224 204 191 182 180 175 168 167 168 165 157 152 146 131 122 118 100 82 68 56 35 15 357 345 334 332 342
124 195 155 239 228 179 205 173 186 201 215 188 233 208 252 224 222 221 204 175 172 185 184 182 173 168 164 155 153 142 132 131 126 108 89 63 63 37 9 359 339 336 341 344
8 226 110 301 278 185 240 206 207 216 265 253 269 273 256 252 211 168 194 178 190 196 198 185 177 168 168 166 153 148 144 135 125 116 114 106 71 38 355 346 343 347 342 344
156 138 105 256 30 21 288 210 192 199 204 199 213 235 232 238 214 211 200 191 197 198 192 185 182 175 167 164 155 154 151 138 126 122 126 113 82 47 347 335 356 347 351 342
150 136 136 192 53 253 227 197 197 214 205 222 273 260 230 225 243 236 197 196 204 199 191 187 174 164 158 146 137 134 142 138 128 133 147 121 98 59 358 11 1 340 345 346
95 141 147 182 205 291 231 186 159 168 238 230 229 249 254 124 19 277 192 203 203 195 190 181 169 156 142 146 142 135 138 135 135 151 159 143 131 103 34 22 347 326 348 8
55 28 186 129 213 237 38 185 155 97 265 228 214 237 244 134 192 263 190 201 196 168 161 155 150 143 142 146 141 140 147 149 161 162 168 152 157 153 112 337 340 310 324 37
147 78 209 203 238 270 192 146 129 164 245 201 196 224 147 192 206 230 117 84 131 149 150 139 147 156 153 148 145 142 148 165 161 154 148 147 163 166 194 77 336 25 2 18
173 175 195 146 206 256 140 148 185 210 194 172 173 185 192 211 150 128 116 134 138 137 139 144 142 141 150 151 143 146 161 148 146 144 150 150 162 163 133 99 52 56 28 13
203 194 187 190 219 113 187 199 212 162 163 193 172 190 189 173 195 172 165 154 145 148 144 147 143 141 148 155 153 152 152 145 150 144 154 153 167 161 149 123 92 66 38 41
242 184 215 122 239 215 198 227 207 180 185 181 193 171 168 185 168 170 150 152 152 150 150 147 144 150 151 158 154 143 147 149 146 145 159 167 153 140 124 123 134 122 29 359
176 149 203 237 238 28 232 216 186 196 179 185 125 181 194 173 171 169 167 160 162 152 152 156 157 155 159 155 141 143 146 145 146 152 163 158 150 151 150 141 171 163 223 180
194 182 193 226 224 212 245 174 176 179 204 208 168 182 191 179 167 159 161 159 157 153 154 157 157 152 152 150 142 149 148 154 154 156 162 162 154 152 146 134 53 44 69 63